Tracking 27420 objects as of 28-May-2023
HD Live streaming from Space Station
objects crossing your sky now

THOR ABLESTAR DEB

Track THOR ABLESTAR DEB now!
10-day predictions


NORAD ID: 5876
Int'l Code: 1961-015KF
Perigee: 906.1 km
Apogee: 2,052.4 km
Inclination: 65.7 °
Period: 115.4 minutes
Semi major axis: 7850 km
RCS: 0.0752 m2 (small)
Launch date: June 29, 1961
Source: United States (US)
Launch site: AIR FORCE EASTERN TEST RANGE (AFETR)

Note: This is SATELLITE DEBRIS
Your satellite tracking list
Your tracking list is empty




NASA's NSSDC Master Catalog

Two Line Element Set (TLE):
1 05876U 61015KF  23147.90144391 -.00000132  00000-0 -18542-3 0  9998
2 05876  65.6749  23.1645 0730070 323.5590  31.7743 12.48180525 25738
Source of the keplerian elements: AFSPC